Location: Lesignano de� Bagni
(44.6500°N, 10.3000°E)
Time: 05:08:51
(UTC+00:00)

Cosmos 2333 Rocket - Pass Details

Date: 03 March 2021
Orbit: 837 x 864 km, 70.8° (Epoch: 13 April)

Event Time Altitude Azimuth Distance (km) Brightness Sun altitude
Rises 18:46:15 0° 188° (S) 3,384 5.3 -18.0°
Reaches altitude 10° 18:48:44 10° 183° (S) 2,457 4.6 -18.4°
Maximum altitude 18:54:10 51° 109° (ESE) 1,057 2.3 -19.4°
Drops below altitude 10° 18:59:41 10° 35° (NE) 2,491 4.4 -20.3°
Sets 19:02:12 0° 30° (NNE) 3,435 5.2 -20.8°
